Wind_Speed
17 17 16 15 14 14 13 12 11 10 9 10 10 10 10 11 10 10 10 10 10 9 9 10 10 10 10 10 10 10 11 10 10 10 10 11 11 12 12 12 12 11 12 12
17 17 18 17 16 15 14 13 12 11 10 10 11 11 11 11 11 11 10 10 10 10 10 10 10 10 10 10 11 11 11 11 11 11 11 12 12 12 13 13 13 13 14 14
19 19 19 19 16 16 15 14 13 12 11 11 11 12 12 12 12 11 11 10 10 11 11 10 11 11 10 11 11 11 12 12 13 13 13 13 13 13 14 14 15 15 15 16
20 20 21 18 17 17 16 15 14 13 12 12 12 11 12 12 12 11 11 11 12 12 12 12 11 12 12 12 12 13 13 13 14 14 15 15 14 15 15 15 16 16 17 17
21 21 20 19 18 17 16 16 15 14 14 14 13 12 12 12 12 12 12 12 12 12 13 13 13 13 13 14 14 15 14 15 15 16 16 15 15 16 16 16 17 17 18 19
21 21 20 19 18 17 17 16 15 14 15 15 14 14 12 12 12 12 12 13 13 13 13 14 14 14 14 15 15 16 16 16 17 17 16 16 17 17 17 17 17 18 19 19
21 21 20 19 18 17 16 15 15 16 16 15 14 14 13 13 12 12 12 13 13 13 14 15 15 15 15 15 15 16 16 17 17 17 17 17 18 18 19 19 19 19 20 20
21 22 20 20 19 18 17 17 17 16 16 15 15 15 14 13 13 12 13 13 13 14 15 15 15 15 16 16 16 17 17 18 17 17 17 18 18 19 19 20 20 20 21 21
21 21 20 21 20 20 20 18 18 18 17 17 16 16 15 14 14 14 14 14 14 15 15 15 15 15 15 16 17 18 18 18 19 19 18 19 20 20 20 21 21 21 22 22
23 21 20 20 20 20 21 20 19 19 18 18 18 17 17 16 16 16 16 15 15 15 15 15 15 15 15 16 17 18 19 19 20 20 20 20 21 21 21 22 22 22 23 23
24 22 21 21 20 20 21 21 21 20 19 18 18 18 17 16 16 16 16 16 16 15 15 15 15 16 16 17 17 18 18 19 19 20 20 21 21 21 22 22 23 23 23 24
26 24 23 22 22 22 22 22 21 21 20 20 19 19 18 17 17 16 16 16 16 16 16 16 16 16 16 16 17 17 18 19 19 19 20 20 20 21 22 23 24 24 24 24
27 26 25 24 24 24 24 23 22 22 22 21 20 19 19 19 18 18 17 17 17 17 17 17 17 17 17 18 18 18 18 18 19 19 19 20 21 21 22 23 24 24 24 25
28 28 27 27 26 26 26 25 24 23 23 22 22 21 20 20 19 19 19 18 18 18 18 18 18 19 19 19 20 20 20 20 20 20 20 21 21 22 23 24 25 26 26 27
29 29 29 28 28 28 28 26 25 24 23 23 23 22 22 21 21 20 20 20 19 19 19 20 20 20 20 21 21 21 22 22 22 22 22 23 23 24 25 25 26 26 27 28
31 31 30 30 30 30 29 28 26 25 25 25 24 24 23 23 22 21 21 21 21 21 21 21 21 22 22 22 22 23 23 23 24 24 24 25 25 26 27 28 28 28 29 29
31 31 31 31 31 31 30 29 28 27 27 26 26 25 25 24 23 23 23 23 23 23 23 23 23 23 23 24 24 24 24 24 25 26 26 26 27 28 28 29 29 29 30 30
31 31 32 31 31 32 31 31 30 30 30 29 28 27 27 26 24 24 24 24 24 23 23 23 24 24 25 25 25 25 25 25 26 26 27 27 28 28 29 29 30 30 31 33
32 32 32 32 32 33 33 32 32 31 31 31 30 29 28 28 27 27 26 25 24 24 24 24 24 25 25 25 25 25 26 26 27 27 27 27 28 29 30 30 30 31 33 34
32 32 33 32 33 33 34 34 34 33 32 31 31 30 30 29 29 28 28 27 26 26 25 26 26 25 25 25 25 26 26 27 27 27 27 28 29 30 30 31 32 33 34 35
32 33 33 33 34 34 34 34 34 34 33 32 32 31 31 30 30 29 29 29 28 28 28 27 27 26 26 27 27 27 28 28 29 29 29 29 30 31 32 33 34 35 36 37
31 32 33 33 34 35 35 34 35 34 33 33 32 33 33 32 31 31 30 30 29 29 29 28 28 28 28 29 29 29 30 30 30 31 31 32 33 34 35 36 36 37 38 38
31 32 32 32 33 35 35 35 35 35 35 34 33 33 33 32 32 32 32 32 31 30 30 29 29 30 30 30 30 31 31 32 32 33 33 34 35 36 37 37 38 39 39 40
32 32 32 32 33 33 33 34 35 35 36 35 35 34 33 33 33 33 33 33 32 31 31 30 30 31 31 31 31 32 33 33 34 35 36 37 38 38 39 39 39 40 41 41
32 32 32 32 33 33 33 34 35 36 36 36 35 34 34 34 34 33 33 33 33 32 32 32 32 33 33 33 33 34 35 35 36 37 38 39 39 40 40 40 40 40 41 42
31 31 31 32 33 33 34 34 35 35 35 36 36 35 34 34 34 34 33 33 33 33 34 34 34 34 34 34 35 35 36 37 38 39 39 40 40 40 40 40 40 40 41 41
30 30 30 31 32 33 34 35 35 35 36 36 36 36 35 35 35 35 34 34 34 34 34 34 35 36 36 36 37 37 37 37 38 39 39 39 39 39 39 39 40 40 41 41
Wind_Direction
247 244 243 245 244 249 253 255 253 251 246 237 242 242 240 236 232 232 228 228 228 227 226 229 231 230 231 232 234 238 241 245 247 250 253 258 259 260 260 263 267 272 276 276
247 245 242 242 241 246 250 251 251 250 246 241 243 243 239 233 232 235 236 231 231 231 229 229 231 233 235 236 237 242 246 249 253 256 258 262 262 260 262 263 266 272 276 277
247 246 243 240 240 244 246 249 249 247 246 245 247 246 241 236 235 235 235 233 230 231 230 231 233 237 239 240 240 245 249 252 256 257 260 262 262 262 266 266 267 271 275 277
246 246 244 243 242 242 243 246 247 244 244 247 250 246 240 237 236 234 233 237 237 235 235 238 241 245 246 246 247 250 255 257 258 260 262 263 262 264 267 271 271 272 275 277
247 247 245 242 242 243 244 243 243 243 243 244 244 244 242 240 239 238 238 238 242 241 241 244 248 250 250 251 253 256 260 261 262 264 265 263 263 265 268 272 275 275 277 278
245 245 246 244 241 241 243 240 239 241 242 241 240 242 244 243 240 239 240 243 245 246 247 250 253 253 253 255 257 258 261 263 263 264 265 265 266 269 272 275 277 278 278 278
244 244 244 245 242 242 242 240 240 241 239 238 239 241 242 242 242 242 245 247 250 251 252 255 257 256 256 258 261 263 263 264 267 266 266 267 269 272 273 275 276 279 281 280
244 243 244 246 244 241 239 239 240 238 234 236 239 238 239 241 244 247 251 254 257 258 256 258 260 260 259 260 263 265 265 267 268 269 269 269 270 272 274 276 277 278 280 282
246 246 246 245 243 240 238 236 235 233 233 235 238 240 241 243 245 248 254 258 262 262 260 261 263 263 262 262 262 264 265 268 270 272 272 272 272 272 274 277 277 278 280 280
243 242 242 241 238 238 237 235 233 234 236 236 238 241 243 246 248 251 255 259 261 262 262 262 263 264 264 265 263 265 266 268 270 273 272 274 274 274 274 275 277 280 282 282
240 239 241 240 238 237 237 235 234 235 237 237 237 239 244 247 249 251 254 258 260 261 263 264 264 264 264 265 265 267 268 268 269 273 274 275 276 277 277 278 281 282 282 283
239 238 239 239 238 236 236 234 233 235 236 236 237 240 244 247 250 252 255 258 261 264 265 264 265 267 268 266 266 268 269 269 271 274 276 276 276 277 278 279 280 280 282 283
239 237 237 237 235 234 234 234 234 236 238 237 238 241 244 245 248 253 258 261 264 266 266 267 267 268 270 270 271 271 273 276 277 278 278 278 278 279 280 281 281 281 282 282
239 238 237 236 234 234 235 234 236 236 237 237 239 240 242 244 247 252 257 259 261 264 264 266 268 269 270 270 271 272 274 277 280 280 282 283 284 284 284 285 285 285 284 285
238 237 236 235 234 234 234 235 237 237 237 237 238 240 242 244 246 250 255 258 260 263 264 266 268 269 270 270 271 272 273 277 280 281 283 284 284 285 286 287 287 287 288 288
238 238 237 236 236 235 235 235 236 237 237 238 238 240 243 246 249 252 256 259 261 264 266 267 267 268 269 270 271 272 274 277 279 281 283 284 284 285 286 287 288 288 290 291
239 238 238 237 236 235 236 237 238 238 238 238 239 242 245 246 249 253 256 258 261 264 266 267 266 267 268 270 271 273 275 278 279 280 282 283 285 286 287 288 289 289 289 291
240 239 238 238 236 236 237 237 238 240 240 240 241 243 245 246 248 252 256 259 262 264 265 267 267 266 267 269 271 273 274 277 280 281 282 284 286 288 287 287 289 289 289 291
240 239 239 238 237 237 237 237 238 241 241 241 242 244 246 248 250 252 256 259 261 263 264 265 266 267 268 268 270 272 274 277 280 282 283 285 286 288 287 287 288 290 290 291
238 237 237 237 237 236 236 237 238 240 242 242 242 243 245 248 251 253 256 258 259 260 262 264 266 269 270 270 272 274 277 279 281 283 284 285 287 288 288 288 289 289 290 293
238 238 238 238 238 237 237 238 239 241 242 243 242 243 245 247 249 253 256 258 258 260 262 265 266 268 270 272 273 276 279 280 281 283 285 286 288 289 290 290 291 291 293 294
239 238 238 239 240 239 239 239 239 240 242 243 243 245 246 248 250 253 255 257 259 260 261 263 265 267 270 272 274 276 279 281 282 284 285 287 289 290 291 292 293 293 294 294
239 240 240 240 240 240 240 240 239 240 241 241 241 243 246 249 251 253 256 257 258 260 262 263 265 267 270 272 274 276 279 281 282 284 286 287 288 290 291 292 293 293 294 294
241 240 240 241 241 241 241 240 240 240 241 242 243 244 246 248 251 253 254 255 258 260 262 263 265 267 270 272 274 276 278 280 282 284 286 287 289 290 291 292 292 293 294 295
243 243 243 243 243 242 241 241 241 240 241 243 244 245 247 249 251 253 253 255 258 260 262 263 265 268 271 273 275 277 279 281 283 285 286 287 289 290 290 291 292 293 295 296
243 244 244 244 243 241 241 241 240 240 240 241 243 245 247 249 251 253 254 256 258 260 262 264 266 269 271 273 275 278 280 282 283 285 287 288 289 289 290 292 293 294 296 296
242 242 243 243 242 242 241 241 240 241 242 244 245 246 248 249 251 253 256 258 260 262 263 265 267 270 272 274 276 279 281 284 285 285 287 287 288 290 291 292 293 294 294 295
Height
5824 5825 5827 5828 5830 5832 5833 5834 5835 5836 5837 5838 5838 5839 5840 5841 5842 5843 5844 5845 5846 5847 5848 5850 5851 5852 5854 5855 5856 5857 5858 5859 5860 5861 5861 5862 5862 5863 5863 5864 5864 5864 5863 5863
5820 5822 5823 5825 5827 5829 5830 5831 5832 5833 5835 5835 5836 5837 5837 5838 5840 5841 5842 5843 5844 5845 5847 5848 5849 5850 5851 5852 5853 5854 5855 5856 5857 5858 5859 5859 5859 5860 5860 5860 5861 5861 5860 5860
5816 5817 5819 5821 5824 5825 5827 5829 5830 5831 5833 5833 5833 5834 5835 5836 5838 5839 5840 5841 5842 5843 5844 5846 5847 5848 5849 5850 5851 5852 5853 5854 5854 5855 5855 5856 5856 5856 5857 5857 5857 5857 5857 5856
5811 5814 5815 5821 5821 5822 5824 5825 5827 5828 5829 5830 5831 5832 5833 5834 5835 5836 5838 5839 5840 5841 5842 5843 5844 5845 5846 5847 5848 5849 5849 5850 5851 5851 5852 5852 5853 5853 5853 5853 5853 5853 5853 5852
5807 5808 5811 5815 5817 5818 5820 5822 5823 5824 5826 5827 5828 5829 5830 5831 5833 5834 5835 5836 5837 5838 5839 5840 5841 5842 5843 5844 5845 5845 5846 5846 5847 5847 5848 5848 5849 5849 5849 5849 5849 5849 5848 5848
5802 5804 5807 5812 5813 5814 5817 5818 5820 5821 5822 5823 5824 5826 5828 5829 5830 5831 5832 5833 5834 5835 5836 5837 5838 5838 5839 5840 5841 5841 5842 5842 5842 5843 5843 5844 5844 5845 5845 5845 5845 5844 5844 5843
5797 5799 5802 5806 5808 5811 5814 5816 5816 5817 5818 5820 5821 5824 5825 5826 5827 5828 5829 5830 5830 5831 5832 5833 5834 5834 5835 5836 5836 5837 5837 5838 5838 5838 5839 5839 5840 5840 5840 5840 5840 5839 5839 5838
5793 5795 5800 5801 5804 5806 5808 5810 5811 5813 5814 5816 5818 5819 5821 5822 5823 5825 5826 5827 5827 5828 5828 5829 5829 5830 5831 5831 5832 5832 5833 5833 5834 5834 5834 5835 5835 5835 5835 5835 5834 5834 5833 5832
5789 5793 5794 5796 5798 5801 5803 5805 5807 5809 5810 5812 5814 5815 5817 5819 5820 5821 5822 5823 5823 5824 5824 5825 5825 5826 5826 5827 5827 5828 5828 5829 5829 5829 5829 5830 5830 5830 5830 5829 5829 5828 5827 5827
5783 5786 5788 5790 5792 5795 5798 5800 5803 5805 5807 5808 5810 5811 5813 5815 5816 5817 5818 5819 5819 5820 5820 5820 5821 5822 5822 5822 5822 5823 5823 5824 5824 5824 5824 5824 5824 5824 5824 5823 5823 5822 5821 5820
5777 5781 5783 5785 5787 5790 5793 5795 5798 5800 5802 5804 5806 5807 5809 5810 5812 5813 5814 5815 5815 5816 5816 5816 5817 5817 5817 5818 5818 5818 5818 5819 5819 5819 5819 5818 5818 5818 5817 5817 5816 5816 5815 5814
5772 5775 5777 5780 5782 5785 5787 5790 5792 5795 5797 5799 5801 5803 5804 5806 5807 5808 5809 5810 5811 5811 5812 5812 5812 5812 5812 5813 5813 5813 5813 5813 5813 5813 5813 5813 5812 5811 5811 5811 5810 5809 5808 5807
5765 5767 5770 5773 5776 5778 5781 5784 5787 5789 5792 5794 5796 5798 5799 5801 5802 5803 5804 5805 5806 5807 5807 5807 5807 5808 5808 5808 5808 5808 5809 5808 5808 5808 5807 5806 5806 5805 5804 5804 5803 5801 5800 5799
5757 5760 5763 5766 5769 5772 5775 5778 5781 5783 5786 5788 5790 5792 5794 5796 5797 5798 5799 5800 5801 5801 5801 5802 5802 5803 5803 5803 5803 5803 5803 5803 5802 5802 5801 5800 5799 5798 5798 5797 5796 5794 5793 5792
5750 5753 5756 5759 5762 5765 5768 5771 5774 5777 5780 5782 5784 5786 5788 5790 5791 5793 5794 5794 5795 5796 5796 5796 5797 5797 5797 5797 5797 5797 5797 5796 5796 5795 5794 5794 5793 5792 5791 5790 5788 5787 5785 5784
5742 5745 5748 5752 5755 5758 5761 5764 5768 5770 5773 5776 5778 5780 5782 5784 5785 5787 5788 5789 5789 5790 5790 5790 5790 5791 5791 5791 5791 5791 5790 5790 5789 5788 5788 5787 5786 5785 5784 5782 5781 5779 5778 5776
5734 5738 5741 5744 5748 5751 5754 5757 5760 5763 5766 5769 5771 5773 5775 5777 5779 5780 5781 5782 5783 5783 5783 5784 5784 5784 5784 5784 5784 5784 5784 5783 5782 5782 5781 5779 5778 5777 5776 5775 5773 5771 5769 5768
5726 5730 5733 5736 5739 5743 5746 5749 5752 5755 5758 5761 5764 5766 5768 5770 5772 5773 5774 5775 5776 5776 5777 5777 5777 5777 5777 5777 5777 5777 5776 5776 5775 5774 5773 5772 5770 5769 5768 5766 5765 5763 5761 5759
5717 5721 5724 5727 5731 5734 5738 5741 5744 5747 5749 5752 5755 5758 5760 5762 5764 5765 5766 5767 5768 5769 5769 5769 5770 5770 5770 5770 5769 5769 5769 5768 5767 5766 5765 5764 5762 5761 5759 5757 5756 5754 5752 5749
5708 5712 5715 5718 5721 5725 5729 5732 5735 5738 5741 5744 5747 5749 5752 5754 5756 5757 5758 5759 5760 5761 5761 5762 5762 5762 5762 5762 5762 5761 5761 5760 5759 5758 5757 5756 5754 5752 5750 5749 5747 5745 5742 5740
5700 5703 5706 5709 5713 5716 5719 5723 5726 5730 5732 5735 5738 5741 5743 5745 5747 5749 5750 5751 5752 5753 5753 5754 5754 5754 5754 5754 5754 5753 5753 5752 5751 5750 5749 5747 5745 5744 5742 5739 5737 5735 5732 5729
5691 5694 5697 5700 5704 5707 5710 5714 5717 5721 5724 5726 5729 5732 5734 5736 5738 5740 5741 5743 5743 5744 5744 5745 5746 5746 5746 5746 5745 5745 5744 5743 5742 5741 5739 5738 5736 5734 5732 5730 5727 5724 5721 5718
5682 5685 5688 5692 5695 5698 5701 5704 5708 5711 5714 5717 5720 5723 5725 5727 5729 5731 5732 5733 5734 5735 5736 5736 5737 5737 5737 5737 5737 5736 5735 5734 5733 5731 5730 5728 5726 5724 5721 5719 5716 5713 5710 5707
5673 5677 5679 5682 5685 5688 5692 5695 5698 5702 5705 5708 5711 5713 5715 5718 5720 5721 5722 5724 5725 5726 5726 5727 5728 5728 5728 5727 5727 5726 5725 5724 5723 5722 5720 5718 5715 5713 5710 5707 5704 5701 5698 5695
5664 5667 5670 5673 5676 5679 5682 5685 5688 5692 5695 5698 5701 5703 5706 5708 5710 5711 5713 5714 5715 5716 5717 5717 5718 5718 5718 5717 5717 5716 5715 5714 5712 5711 5709 5706 5704 5701 5698 5696 5693 5689 5686 5683
5655 5658 5661 5664 5667 5670 5673 5676 5679 5682 5685 5688 5691 5693 5696 5698 5700 5701 5702 5704 5705 5706 5707 5707 5708 5708 5707 5707 5706 5705 5704 5703 5701 5699 5697 5695 5692 5690 5687 5684 5681 5678 5674 5671
5646 5649 5652 5655 5657 5660 5663 5666 5669 5672 5675 5678 5681 5684 5686 5688 5690 5691 5692 5694 5695 5696 5696 5697 5697 5697 5696 5696 5695 5694 5693 5691 5690 5687 5685 5683 5681 5678 5676 5673 5669 5666 5663 5659